Delaware, OH

6:40 PM EDT on March 27, 2017 (GMT -0400)
Delaware Municipal

Weather History for KDLZ - October, 2012

Change the Weather History Date:

Saturday, October 27, 2012

  Actual Average Record
Temperature  
Mean Temperature 44 °F -  
Max Temperature 46 °F 60 °F 84 °F (1963)
Min Temperature 41 °F 35 °F 19 °F (1962)
Degree Days  
Heating Degree Days 22    
Moisture  
Dew Point 41 °F    
Average Humidity 87    
Maximum Humidity 100    
Minimum Humidity 71    
Precipitation  
Precipitation 0.17 in - - ()
Sea Level Pressure  
Sea Level Pressure 30.09 in    
Wind  
Wind Speed 12 mph (North)    
Max Wind Speed 18 mph    
Max Gust Speed 25 mph    
Visibility 9 miles    
Events Rain    
Averages and records for this station are not official NWS values.
T = Trace of Precipitation, MM = Missing Value Source: NWS Daily Summary

Daily Weather History Graph

Daily Weather History Graph

Search for Another Location

Airport or City:

Trip Planner

Search our weather history database for the weather conditions in past years. The results will help you decide how hot, cold, wet, or windy it might be!

Date:

Astronomy

Oct. 27, 2012 Rise Set
Actual Time 7:56 AM EDT 6:35 PM EDT
Civil Twilight 7:28 AM EDT 7:03 PM EDT
Nautical Twilight 6:56 AM EDT 7:34 PM EDT
Astronomical Twilight 6:25 AM EDT 8:06 PM EDT
Moon 5:20 PM EDT 5:50 AM EDT
Length of Visible Light 11h 34m
Length of Day
10h 38m
Waxing Gibbous, 96% of the Moon is Illuminated
Oct 27
Waxing Gibbous
Oct 29
Full
Nov 6
Last Quarter
Nov 13
New
Nov 20
First Quarter

Hourly Weather History & Observations

Time (EDT) Temp. Windchill Dew Point Humidity Pressure Visibility Wind Dir Wind Speed Gust Speed Precip Events Conditions
12:17 AM 44.6 °F 39.7 °F 42.8 °F 93% 30.11 in 7.0 mi North 9.2 mph - 0.01 in Rain Rain
12:37 AM 44.6 °F 39.7 °F 42.8 °F 93% 30.10 in 10.0 mi North 9.2 mph 17.3 mph 0.02 in   Drizzle
12:56 AM 44.6 °F 39.7 °F 42.8 °F 93% 30.10 in 10.0 mi North 9.2 mph 16.1 mph 0.02 in   Drizzle
1:17 AM 44.6 °F 39.2 °F 42.8 °F 93% 30.10 in 10.0 mi North 10.4 mph - N/A   Drizzle
1:37 AM 44.6 °F 38.4 °F 42.8 °F 93% 30.10 in 7.0 mi North 12.7 mph - 0.02 in Rain Rain
1:56 AM 44.6 °F 38.8 °F 42.8 °F 93% 30.09 in 10.0 mi North 11.5 mph 18.4 mph 0.03 in   Drizzle
2:17 AM 44.6 °F 38.4 °F 42.8 °F 93% 30.08 in 5.0 mi North 12.7 mph 18.4 mph 0.03 in Rain Rain
2:37 AM 44.6 °F 38.4 °F 42.8 °F 93% 30.08 in 7.0 mi North 12.7 mph 16.1 mph 0.04 in Rain Rain
2:56 AM 44.6 °F 39.2 °F 42.8 °F 93% 30.08 in 10.0 mi North 10.4 mph - 0.05 in   Drizzle
3:17 AM 44.6 °F 38.8 °F 42.8 °F 93% 30.07 in 10.0 mi North 11.5 mph 17.3 mph N/A Rain Rain
3:37 AM 44.6 °F 38.8 °F 42.8 °F 93% 30.07 in 7.0 mi North 11.5 mph 16.1 mph N/A   Light Drizzle
3:56 AM 44.6 °F 38.4 °F 42.8 °F 93% 30.06 in 10.0 mi North 12.7 mph 18.4 mph N/A   Overcast
4:36 AM 44.6 °F 39.7 °F 42.8 °F 93% 30.05 in 5.0 mi North 9.2 mph 17.3 mph 0.01 in Rain Light Rain
4:56 AM 44.6 °F 39.2 °F 42.8 °F 93% 30.04 in 7.0 mi North 10.4 mph - 0.02 in Rain Rain
5:17 AM 44.6 °F 38.8 °F 42.8 °F 93% 30.05 in 7.0 mi North 11.5 mph 17.3 mph 0.03 in Rain Rain
5:36 AM 44.6 °F 38.8 °F 42.8 °F 93% 30.04 in 7.0 mi North 11.5 mph 17.3 mph 0.05 in Rain Rain
5:56 AM 44.6 °F 38.4 °F 42.8 °F 93% 30.04 in 10.0 mi North 12.7 mph - 0.05 in Rain Rain
6:17 AM 42.8 °F 35.8 °F 41.0 °F 93% 30.05 in 10.0 mi North 13.8 mph 17.3 mph N/A   Light Drizzle
6:36 AM 42.8 °F 36.6 °F 41.0 °F 93% 30.05 in 10.0 mi NNW 11.5 mph 19.6 mph N/A   Overcast
6:56 AM 42.8 °F 35.8 °F 41.0 °F 93% 30.06 in 3.0 mi NNW 13.8 mph 17.3 mph N/A Rain Light Rain
7:17 AM 41.0 °F 34.3 °F 41.0 °F 100% 30.07 in 2.0 mi NNW 11.5 mph - N/A Rain Light Rain
7:56 AM 42.8 °F 35.4 °F 41.0 °F 93% 30.07 in 2.5 mi North 15.0 mph 24.2 mph N/A Rain Light Rain
8:17 AM 42.8 °F 35.1 °F 41.0 °F 93% 30.08 in 7.0 mi North 16.1 mph 25.3 mph N/A   Overcast
8:36 AM 42.8 °F 35.4 °F 41.0 °F 93% 30.09 in 10.0 mi North 15.0 mph 24.2 mph N/A   Overcast
8:57 AM 41.0 °F 32.8 °F 39.2 °F 93% 30.10 in 4.0 mi North 16.1 mph 23.0 mph N/A   Light Drizzle
9:17 AM 41.0 °F 34.3 °F 39.2 °F 93% 30.10 in 3.0 mi North 11.5 mph 23.0 mph N/A   Light Drizzle
9:36 AM 41.0 °F 33.1 °F 39.2 °F 93% 30.11 in 3.0 mi North 15.0 mph 19.6 mph N/A Rain Light Rain
9:57 AM 42.8 °F 35.1 °F 39.2 °F 87% 30.11 in 10.0 mi North 16.1 mph 24.2 mph N/A   Overcast
10:17 AM 42.8 °F 35.8 °F 41.0 °F 93% 30.12 in 7.0 mi North 13.8 mph 21.9 mph N/A   Overcast
10:36 AM 42.8 °F 35.4 °F 41.0 °F 93% 30.12 in 4.0 mi North 15.0 mph 21.9 mph N/A   Overcast
10:57 AM 42.8 °F 35.8 °F 39.2 °F 87% 30.13 in 10.0 mi North 13.8 mph 25.3 mph N/A   Overcast
11:36 AM 42.8 °F 35.8 °F 41.0 °F 93% 30.12 in 4.0 mi North 13.8 mph 18.4 mph N/A Rain Light Rain
11:57 AM 44.6 °F 39.2 °F 41.0 °F 87% 30.12 in 10.0 mi North 10.4 mph 19.6 mph N/A   Overcast
12:17 PM 44.6 °F 36.9 °F 41.0 °F 87% 30.11 in 10.0 mi North 18.4 mph 23.0 mph N/A   Overcast
12:36 PM 44.6 °F 37.8 °F 41.0 °F 87% 30.12 in 10.0 mi North 15.0 mph 21.9 mph N/A   Overcast
12:57 PM 44.6 °F 38.8 °F 41.0 °F 87% 30.11 in 10.0 mi North 11.5 mph 18.4 mph N/A   Overcast
1:16 PM 44.6 °F 37.8 °F 41.0 °F 87% 30.10 in 10.0 mi North 15.0 mph 18.4 mph N/A   Overcast
1:36 PM 44.6 °F 38.4 °F 41.0 °F 87% 30.09 in 10.0 mi North 12.7 mph 20.7 mph N/A   Overcast
1:57 PM 44.6 °F 39.2 °F 41.0 °F 87% 30.09 in 10.0 mi North 10.4 mph 21.9 mph N/A   Overcast
2:16 PM 46.4 °F 40.4 °F 41.0 °F 81% 30.09 in 10.0 mi North 13.8 mph - N/A   Overcast
2:36 PM 46.4 °F 40.7 °F 41.0 °F 81% 30.08 in 10.0 mi North 12.7 mph 20.7 mph N/A   Overcast
2:57 PM 46.4 °F 41.1 °F 41.0 °F 81% 30.07 in 10.0 mi North 11.5 mph 17.3 mph N/A   Overcast
3:16 PM 46.4 °F 41.1 °F 41.0 °F 81% 30.07 in 10.0 mi North 11.5 mph 18.4 mph N/A   Overcast
3:37 PM 46.4 °F 40.1 °F 41.0 °F 81% 30.07 in 10.0 mi North 15.0 mph 20.7 mph N/A   Overcast
3:57 PM 46.4 °F 40.7 °F 41.0 °F 81% 30.07 in 10.0 mi North 12.7 mph 17.3 mph N/A   Overcast
4:16 PM 46.4 °F 40.4 °F 41.0 °F 81% 30.07 in 10.0 mi North 13.8 mph 19.6 mph N/A   Overcast
4:37 PM 46.4 °F 41.5 °F 41.0 °F 81% 30.08 in 10.0 mi North 10.4 mph - N/A   Overcast
4:57 PM 46.4 °F 41.5 °F 41.0 °F 81% 30.08 in 10.0 mi North 10.4 mph 19.6 mph N/A   Overcast
5:16 PM 46.4 °F 41.1 °F 41.0 °F 81% 30.08 in 10.0 mi North 11.5 mph - N/A   Overcast
5:37 PM 46.4 °F 40.4 °F 41.0 °F 81% 30.08 in 10.0 mi North 13.8 mph 19.6 mph N/A   Overcast
6:16 PM 46.4 °F 41.5 °F 41.0 °F 81% 30.09 in 10.0 mi North 10.4 mph 16.1 mph N/A   Overcast
6:37 PM 46.4 °F 41.5 °F 41.0 °F 81% 30.09 in 10.0 mi North 10.4 mph 17.3 mph N/A   Overcast
6:57 PM 46.4 °F 41.5 °F 41.0 °F 81% 30.10 in 10.0 mi North 10.4 mph 19.6 mph N/A   Overcast
7:16 PM 44.6 °F 38.8 °F 41.0 °F 87% 30.10 in 10.0 mi North 11.5 mph - N/A   Overcast
7:37 PM 44.6 °F 39.2 °F 41.0 °F 87% 30.11 in 10.0 mi North 10.4 mph - N/A   Overcast
7:57 PM 44.6 °F 39.7 °F 39.2 °F 81% 30.11 in 10.0 mi North 9.2 mph - N/A   Overcast
8:16 PM 44.6 °F 40.2 °F 39.2 °F 81% 30.11 in 10.0 mi North 8.1 mph - N/A   Overcast
8:37 PM 44.6 °F 38.8 °F 39.2 °F 81% 30.11 in 10.0 mi North 11.5 mph - N/A   Overcast
8:57 PM 44.6 °F 38.8 °F 39.2 °F 81% 30.11 in 10.0 mi North 11.5 mph - N/A   Overcast
9:16 PM 44.6 °F 38.8 °F 39.2 °F 81% 30.11 in 10.0 mi North 11.5 mph 17.3 mph N/A   Overcast
9:56 PM 44.6 °F 39.2 °F 37.4 °F 76% 30.11 in 10.0 mi North 10.4 mph 20.7 mph N/A   Overcast
10:17 PM 44.6 °F 38.4 °F 37.4 °F 76% 30.11 in 10.0 mi North 12.7 mph - N/A   Overcast
10:37 PM 44.6 °F 39.2 °F 37.4 °F 76% 30.11 in 10.0 mi North 10.4 mph 17.3 mph N/A   Overcast
10:56 PM 44.6 °F 39.2 °F 37.4 °F 76% 30.11 in 10.0 mi North 10.4 mph 23.0 mph N/A   Overcast
11:17 PM 44.6 °F 38.1 °F 35.6 °F 71% 30.11 in 10.0 mi North 13.8 mph 20.7 mph N/A   Overcast
11:37 PM 44.6 °F 39.2 °F 35.6 °F 71% 30.10 in 10.0 mi North 10.4 mph 20.7 mph N/A   Overcast
11:56 PM 44.6 °F 38.4 °F 35.6 °F 71% 30.10 in 10.0 mi North 12.7 mph 17.3 mph N/A   Overcast